Galesburg, IL

8:00 AM CST on January 21, 2018 (GMT -0600)
Galesburg Municipal

Weather History for KGBG - November, 2011

Change the Weather History Date:

Friday, November 25, 2011

  Actual Average Record
Temperature  
Mean Temperature 52 °F -  
Max Temperature 61 °F 44 °F 62 °F (1960)
Min Temperature 43 °F 28 °F -4 °F (1977)
Degree Days  
Heating Degree Days 13    
Growing Degree Days 2 (Base 50)    
Moisture  
Dew Point 41 °F    
Average Humidity 65    
Maximum Humidity 81    
Minimum Humidity 50    
Precipitation  
Precipitation 0.00 in - - ()
Sea Level Pressure  
Sea Level Pressure 29.91 in    
Wind  
Wind Speed 13 mph (SSE)    
Max Wind Speed 23 mph    
Max Gust Speed 28 mph    
Visibility 10 miles    
Events      
Averages and records for this station are not official NWS values.
T = Trace of Precipitation, MM = Missing Value Source: NWS Daily Summary

Daily Weather History Graph

Daily Weather History Graph

Search for Another Location

Airport or City:

Trip Planner

Search our weather history database for the weather conditions in past years. The results will help you decide how hot, cold, wet, or windy it might be!

Date:

Astronomy

Nov. 25, 2011 Rise Set
Actual Time 7:00 AM CST 4:36 PM CST
Civil Twilight 6:30 AM CST 5:06 PM CST
Nautical Twilight 5:56 AM CST 5:40 PM CST
Astronomical Twilight 5:23 AM CST 6:13 PM CST
Moon 7:28 AM CST (11/25) 5:03 PM CST (11/25)
Length of Visible Light 10h 36m
Length of Day
9h 36m
New Moon, 0% of the Moon is Illuminated
Nov 25
New Moon
Dec 2
First Quarter
Dec 10
Full
Dec 17
Last Quarter
Dec 24
New

Hourly Weather History & Observations

Time (CST) Temp. Windchill Dew Point Humidity Pressure Visibility Wind Dir Wind Speed Gust Speed Precip Events Conditions
12:15 AM 50.5 °F - 41.0 °F 70% 30.02 in 10.0 mi South 15.0 mph 18.4 mph N/A   Clear
12:35 AM 50.0 °F - 41.0 °F 71% 30.01 in 10.0 mi South 16.1 mph - N/A   Clear
12:55 AM 50.4 °F - 40.6 °F 69% 30.00 in 10.0 mi South 16.1 mph 21.9 mph N/A   Clear
1:15 AM 50.0 °F - 40.5 °F 70% 30.00 in 10.0 mi South 15.0 mph - N/A   Clear
1:35 AM 49.1 °F - 40.1 °F 71% 30.00 in 10.0 mi South 12.7 mph 18.4 mph N/A   Clear
1:55 AM 49.1 °F - 40.1 °F 71% 30.00 in 10.0 mi South 13.8 mph 18.4 mph N/A   Clear
2:15 AM 48.9 °F - 39.9 °F 71% 30.01 in 10.0 mi South 15.0 mph - N/A   Clear
2:35 AM 48.2 °F - 39.7 °F 73% 30.00 in 10.0 mi South 11.5 mph - N/A   Clear
2:55 AM 47.3 °F - 39.6 °F 74% 30.00 in 10.0 mi SSE 10.4 mph 16.1 mph N/A   Clear
3:15 AM 46.9 °F - 39.6 °F 76% 29.99 in 10.0 mi SSE 12.7 mph 18.4 mph N/A   Clear
3:35 AM 46.6 °F - 39.4 °F 76% 29.99 in 10.0 mi South 13.8 mph 18.4 mph N/A   Clear
3:55 AM 46.4 °F 41.1 °F 39.2 °F 76% 29.99 in 10.0 mi SSE 11.5 mph 17.3 mph N/A   Clear
4:35 AM 45.1 °F 39.1 °F 38.8 °F 79% 29.98 in 10.0 mi SSE 12.7 mph 17.3 mph N/A   Clear
4:55 AM 44.6 °F 39.2 °F 39.2 °F 81% 29.97 in 10.0 mi South 10.4 mph 17.3 mph N/A   Clear
5:15 AM 44.8 °F 39.4 °F 38.7 °F 79% 29.96 in 10.0 mi SSE 10.4 mph - N/A   Clear
5:35 AM 44.6 °F 38.4 °F 38.5 °F 79% 29.97 in 10.0 mi South 12.7 mph - N/A   Clear
5:55 AM 44.4 °F 38.2 °F 38.3 °F 79% 29.98 in 10.0 mi South 12.7 mph - N/A   Clear
6:15 AM 44.1 °F 37.7 °F 38.3 °F 80% 29.97 in 10.0 mi SSE 12.7 mph - N/A   Clear
6:35 AM 43.7 °F 37.7 °F 38.3 °F 81% 29.97 in 10.0 mi SSE 11.5 mph 16.1 mph N/A   Clear
6:55 AM 43.7 °F 37.7 °F 38.1 °F 81% 29.97 in 10.0 mi SSE 11.5 mph - N/A   Clear
7:15 AM 43.7 °F 38.1 °F 38.1 °F 81% 29.96 in 10.0 mi SSE 10.4 mph 17.3 mph N/A   Clear
7:35 AM 44.6 °F 38.1 °F 39.2 °F 81% 29.96 in 10.0 mi SSE 13.8 mph 19.6 mph N/A   Clear
7:55 AM 45.0 °F 39.3 °F 38.5 °F 78% 29.96 in 10.0 mi South 11.5 mph 19.6 mph N/A   Clear
8:15 AM 46.0 °F 39.6 °F 38.8 °F 76% 29.96 in 10.0 mi South 15.0 mph 21.9 mph N/A   Clear
8:35 AM 47.3 °F - 39.0 °F 73% 29.95 in 10.0 mi South 17.3 mph 24.2 mph N/A   Clear
8:55 AM 48.2 °F - 39.2 °F 71% 29.95 in 10.0 mi South 18.4 mph 25.3 mph N/A   Clear
9:15 AM 49.3 °F - 39.4 °F 69% 29.94 in 10.0 mi South 19.6 mph 24.2 mph N/A   Clear
9:35 AM 50.5 °F - 39.6 °F 66% 29.94 in 10.0 mi South 15.0 mph 26.5 mph N/A   Clear
9:55 AM 51.6 °F - 40.1 °F 65% 29.95 in 10.0 mi South 18.4 mph 26.5 mph N/A   Clear
10:15 AM 53.1 °F - 40.3 °F 62% 29.94 in 10.0 mi South 20.7 mph 25.3 mph N/A   Clear
10:35 AM 54.9 °F - 40.6 °F 59% 29.94 in 10.0 mi South 18.4 mph 24.2 mph N/A   Clear
10:55 AM 56.5 °F - 41.0 °F 56% 29.93 in 10.0 mi South 17.3 mph 23.0 mph N/A   Clear
11:15 AM 57.2 °F - 41.0 °F 55% 29.92 in 10.0 mi South 23.0 mph 27.6 mph N/A   Clear
11:35 AM 58.6 °F - 41.2 °F 52% 29.90 in 10.0 mi SSW 19.6 mph 25.3 mph N/A   Clear
11:55 AM 57.9 °F - 40.8 °F 53% 29.89 in 10.0 mi South 18.4 mph - N/A   Clear
12:15 PM 57.6 °F - 41.0 °F 54% 29.89 in 10.0 mi South 17.3 mph 24.2 mph N/A   Clear
12:35 PM 58.8 °F - 41.2 °F 52% 29.89 in 10.0 mi South 18.4 mph 26.5 mph N/A   Clear
12:55 PM 59.5 °F - 41.7 °F 52% 29.89 in 10.0 mi South 17.3 mph 24.2 mph N/A   Clear
1:15 PM 61.2 °F - 42.4 °F 50% 29.88 in 10.0 mi SSW 21.9 mph 26.5 mph N/A   Clear
1:35 PM 59.9 °F - 42.1 °F 52% 29.88 in 10.0 mi South 18.4 mph 26.5 mph N/A   Clear
1:55 PM 59.0 °F - 42.8 °F 55% 29.87 in 10.0 mi South 18.4 mph 21.9 mph N/A   Clear
2:15 PM 60.3 °F - 42.4 °F 52% 29.86 in 10.0 mi South 17.3 mph - N/A   Clear
2:35 PM 59.9 °F - 42.6 °F 53% 29.86 in 10.0 mi South 13.8 mph - N/A   Clear
3:15 PM 59.5 °F - 43.0 °F 54% 29.85 in 10.0 mi South 11.5 mph - N/A   Clear
3:35 PM 59.5 °F - 43.3 °F 55% 29.85 in 10.0 mi South 10.4 mph - N/A   Clear
3:55 PM 59.4 °F - 43.5 °F 56% 29.85 in 10.0 mi South 6.9 mph - N/A   Clear
4:15 PM 57.9 °F - 43.0 °F 58% 29.85 in 10.0 mi SE 5.8 mph - N/A   Clear
4:35 PM 56.5 °F - 42.8 °F 60% 29.85 in 10.0 mi SE 3.5 mph - N/A   Clear
4:55 PM 55.4 °F - 42.8 °F 63% 29.85 in 10.0 mi SE 3.5 mph - N/A   Clear
5:15 PM 55.9 °F - 43.0 °F 62% 29.84 in 10.0 mi SE 5.8 mph - N/A   Clear
5:35 PM 55.4 °F - 42.8 °F 63% 29.83 in 10.0 mi SE 4.6 mph - N/A   Clear
5:55 PM 55.8 °F - 43.2 °F 63% 29.83 in 10.0 mi SE 4.6 mph - N/A   Clear
6:15 PM 55.6 °F - 43.0 °F 63% 29.82 in 10.0 mi ESE 4.6 mph - N/A   Clear
6:35 PM 54.7 °F - 42.8 °F 64% 29.82 in 10.0 mi SE 3.5 mph - N/A   Clear
6:55 PM 54.9 °F - 43.0 °F 64% 29.82 in 10.0 mi SE 5.8 mph - N/A   Clear
7:15 PM 55.4 °F - 42.8 °F 63% 29.82 in 10.0 mi SE 6.9 mph - N/A   Clear
7:35 PM 54.5 °F - 42.8 °F 65% 29.83 in 10.0 mi SE 6.9 mph - N/A   Clear
7:55 PM 54.5 °F - 42.4 °F 64% 29.84 in 10.0 mi SE 6.9 mph - N/A   Clear
8:15 PM 54.9 °F - 41.9 °F 62% 29.84 in 10.0 mi SE 6.9 mph - N/A   Clear
8:35 PM 55.8 °F - 41.9 °F 60% 29.84 in 10.0 mi SSE 9.2 mph - N/A   Scattered Clouds
8:55 PM 56.7 °F - 41.9 °F 58% 29.84 in 10.0 mi SSE 9.2 mph - N/A   Scattered Clouds
9:15 PM 56.8 °F - 41.5 °F 57% 29.85 in 10.0 mi SSE 9.2 mph - N/A   Mostly Cloudy
9:35 PM 56.8 °F - 41.4 °F 56% 29.84 in 10.0 mi SSE 10.4 mph - N/A   Scattered Clouds
9:55 PM 57.2 °F - 41.0 °F 55% 29.85 in 10.0 mi SSE 10.4 mph - N/A   Clear
10:15 PM 56.7 °F - 41.4 °F 57% 29.85 in 10.0 mi SSE 11.5 mph 16.1 mph N/A   Clear
10:35 PM 57.0 °F - 41.4 °F 56% 29.85 in 10.0 mi SSE 10.4 mph - N/A   Clear
10:55 PM 57.2 °F - 41.5 °F 56% 29.84 in 10.0 mi SSE 11.5 mph 17.3 mph N/A   Clear
11:15 PM 57.2 °F - 41.9 °F 57% 29.85 in 10.0 mi South 12.7 mph 20.7 mph N/A   Clear
11:35 PM 57.2 °F - 41.9 °F 57% 29.85 in 10.0 mi South 13.8 mph 19.6 mph N/A   Clear
11:55 PM 56.8 °F - 42.1 °F 58% 29.85 in 10.0 mi SSE 11.5 mph 17.3 mph N/A   Clear